1505041200.24,13476,15.63,73542.5,10.67,4.01,5.27,0,*4F
1505041201.42,13477,15.63,73544.3,10.67,2.31,3.85,0,*45
1505041202.62,13478,15.63,73540.0,10.67,2.43,4.15,0,*41
1505041203.85,13479,15.63,73542.5,10.69,1.67,3.49,0,*45
1505041205.07,13480,15.63,73540.0,10.69,0.55,2.05,0,*7A
1505041206.28,13481,15.63,73542.0,10.67,0.13,1.51,0,*75
1505041207.5,13482,15.63,73534.8,10.63,0.21,1.43,0,*70
1505041208.73,13483,15.63,73530.8,10.61,0.97,1.85,0,*74
1505041209.94,13484,15.63,73532.0,10.61,0.71,1.05,0,*73
1505041211.16,13485,15.63,73536.5,10.59,-1.05,-1.25,0,*49
1505041212.37,13486,15.63,73526.0,10.57,-0.45,-1.17,0,*70
1505041213.61,13487,15.63,73524.3,10.53,-1.95,-3.03,0,*4E
1505041214.8,13488,15.63,73520.0,10.47,-2.31,-3.07,0,*4D
1505041216.05,13489,15.63,73510.5,10.47,-1.95,-2.47,0,*44
1505041217.3,13490,15.63,73508.3,10.41,-1.35,-1.71,0,*46
1505041218.53,13491,15.63,73522.5,10.41,-0.57,-1.09,0,*7D
1505041219.76,13492,15.63,73518.5,10.41,0.05,-1.35,0,*6B
1505041220.97,13493,15.63,73516.3,10.39,0.71,-1.51,0,*54
1505041222.22,13494,15.63,73520.3,10.39,1.29,-1.99,0,*6B
1505041223.45,13495,15.63,73526.8,10.37,0.59,-3.31,0,*52
1505041224.63,13496,15.63,73532.8,10.39,0.09,-4.09,0,*66
1505041225.84,13497,15.63,73536.3,10.35,-0.33,-4.33,0,*76
1505041227.09,13498,15.63,73528.5,10.35,-0.23,-3.71,0,*79
1505041228.28,13499,15.63,73546.8,10.29,-0.73,-3.79,0,*78
1505041229.5,13500,15.63,73548.3,10.27,1.05,-1.79,0,*68
1505041230.73,13501,15.63,73546.3,10.25,1.43,-1.05,0,*62
1505041231.94,13502,15.63,73544.0,10.25,1.01,-1.39,0,*68
1505041233.15,13503,15.63,73554.3,10.21,0.47,-1.55,0,*54
1505041234.38,13504,15.63,73564.0,10.21,2.55,0.91,0,*76
1505041235.58,13505,15.63,73570.5,10.23,3.25,1.83,0,*41
1505041236.82,13506,15.63,73564.3,10.23,3.29,2.09,0,*4F
1505041238.04,13507,15.63,73576.0,10.27,3.33,2.35,0,*4E
1505041239.25,13508,15.63,73570.5,10.29,2.31,2.05,0,*4F
1505041240.49,13509,15.63,73568.0,10.31,2.27,2.81,0,*4C
1505041241.73,13510,15.63,73562.5,10.35,0.29,2.01,0,*74
1505041242.97,13511,15.63,73566.0,10.37,-1.25,1.09,0,*6C
1505041244.17,13512,15.63,73556.5,10.39,-1.51,1.59,0,*67
1505041245.41,13513,15.63,73566.0,10.39,-1.35,2.05,0,*6E
1505041246.67,13514,15.63,73566.3,10.41,-1.35,2.05,0,*66
1505041247.9,13515,15.63,73570.8,10.41,-0.49,2.39,0,*52
1505041249.11,13516,15.63,73568.3,10.45,1.75,3.93,0,*47
1505041250.34,13517,15.63,73570.0,10.45,2.69,4.45,0,*44
1505041251.57,13518,15.63,73578.5,10.45,3.03,4.27,0,*42
1505041252.75,13519,15.63,73574.3,10.47,3.55,4.53,0,*41
1505041253.98,13520,15.63,73576.8,10.49,3.79,4.53,0,*4B
1505041255.22,13521,15.63,73576.0,10.53,5.01,6.03,0,*4F
1505041256.45,13522,15.63,73568.8,10.57,4.97,5.95,0,*4A
1505041257.63,13523,15.63,73578.0,10.63,4.19,5.37,0,*42
1505041258.84,13524,15.63,73576.3,10.67,1.75,3.75,0,*4E
1505041260.1,13525,15.63,73574.8,10.71,-0.27,2.51,0,*54
1505041261.33,13526,15.63,73562.8,10.71,-2.15,2.25,0,*67
1505041262.56,13527,15.63,73568.0,10.77,-1.83,3.53,0,*6C
1505041263.81,13528,15.63,73570.0,10.79,-3.43,2.47,0,*67
1505041265.01,13529,15.63,73554.0,10.85,-4.53,0.71,0,*54
1505041266.24,13530,15.63,73542.5,10.83,-5.35,-0.89,0,*71
1505041267.42,13531,15.63,73540.5,10.81,-4.37,-0.41,0,*75
1505041268.61,13532,15.63,73542.0,10.81,-3.31,-0.29,0,*79
1505041269.81,13533,15.63,73544.5,10.79,-2.15,0.05,0,*6B
1505041271.03,13534,15.63,73554.3,10.77,-1.09,0.37,0,*5D
1505041272.24,13535,15.63,73546.3,10.73,-2.03,-0.61,0,*7F
1505041273.49,13536,15.63,73540.8,10.75,-1.87,-0.97,0,*7C
1505041274.72,13537,15.63,73540.0,10.69,-2.03,-1.67,0,*41
1505041275.96,13538,15.63,73540.3,10.63,-1.35,-1.35,0,*45
1505041277.17,13539,15.63,73542.3,10.63,-1.01,-1.25,0,*42
1505041278.38,13540,15.63,73540.5,10.61,-0.45,-0.73,0,*4D
1505041279.59,13541,15.63,73542.5,10.59,-0.03,-1.01,0,*41
1505041280.81,13542,15.63,73538.0,10.59,-0.19,-1.99,0,*78
1505041282.03,13543,15.63,73542.0,10.55,0.13,-2.59,0,*5D
1505041283.26,13544,15.63,73546.5,10.55,-1.05,-4.57,0,*49
1505041284.44,13545,15.63,73548.3,10.51,-0.15,-4.33,0,*7E
1505041285.66,13546,15.63,73538.3,10.51,-0.77,-5.31,0,*7A
1505041286.84,13547,15.63,73542.8,10.51,0.05,-4.29,0,*6B
1505041288.11,13548,15.63,73540.5,10.53,1.09,-2.75,0,*64
1505041289.33,13549,15.63,73540.5,10.55,1.79,-2.11,0,*66
1505041290.54,13550,15.63,73546.8,10.55,1.97,-1.79,0,*63
1505041291.75,13551,15.63,73550.8,10.61,-0.37,-3.75,0,*7D
1505041292.97,13552,15.63,73558.0,10.63,-1.35,-4.13,0,*48
1505041294.21,13553,15.63,73554.8,10.63,-1.83,-3.71,0,*47
1505041295.42,13554,15.63,73556.5,10.67,-0.97,-2.19,0,*7F
1505041296.63,13555,15.63,73546.0,10.67,-1.47,-2.31,0,*48
1505041297.86,13556,15.63,73544.3,10.63,-1.39,-1.63,0,*42
1505041299.05,13557,15.63,73552.3,10.61,1.05,0.97,0,*74
1505041300.25,13558,15.63,73554.5,10.59,1.01,0.95,0,*76
1505041301.5,13559,15.63,73558.5,10.61,2.89,2.89,0,*40
1505041302.75,13560,15.63,73552.5,10.61,2.39,2.69,0,*4F
1505041303.99,13561,15.63,73546.8,10.59,1.55,2.25,0,*44
1505041305.22,13562,15.63,73542.0,10.59,2.13,3.07,0,*47
1505041306.4,13563,15.63,73534.8,10.59,2.61,3.81,0,*4D
1505041307.62,13564,15.63,73548.3,10.59,2.73,4.01,0,*46
1505041308.83,13565,15.63,73550.8,10.59,2.35,3.37,0,*47
1505041310.06,13566,15.63,73546.3,10.59,2.01,2.77,0,*46
1505041311.23,13567,15.63,73550.5,10.59,3.55,4.19,0,*49
1505041312.48,13568,15.63,73542.3,10.61,2.77,3.53,0,*45
1505041313.66,13569,15.63,73542.3,10.59,2.61,3.29,0,*45
1505041314.87,13570,15.63,73532.3,10.57,2.35,3.25,0,*4E
1505041316.07,13571,15.63,73552.3,10.55,2.61,3.79,0,*45
1505041317.27,13572,15.63,73558.3,10.57,2.91,4.15,0,*46
1505041318.51,13573,15.63,73560.3,10.57,3.29,4.59,0,*4D
1505041319.73,13574,15.63,73556.5,10.59,3.33,4.59,0,*4F
1505041320.94,13575,15.63,73554.5,10.59,3.19,4.37,0,*4E
1505041322.14,13576,15.63,73554.5,10.59,3.37,4.19,0,*4D
1505041323.35,13577,15.63,73550.8,10.59,3.37,3.93,0,*49
1505041324.55,13578,15.63,73550.0,10.61,3.93,4.19,0,*46
1505041325.78,13579,15.63,73542.5,10.61,3.71,3.93,0,*4E
1505041327.01,13580,15.63,73542.0,10.63,3.37,3.33,0,*42
1505041328.24,13581,15.63,73544.0,10.67,2.85,2.59,0,*42
1505041329.41,13582,15.63,73548.3,10.63,2.61,2.27,0,*46
1505041330.67,13583,15.63,73560.3,10.61,3.37,3.33,0,*43
1505041331.87,13584,15.63,73564.0,10.67,3.41,3.85,0,*4E
1505041333.07,13585,15.63,73566.5,10.69,3.41,4.15,0,*4F
1505041334.3,13586,15.63,73566.0,10.71,2.89,4.11,0,*44
1505041335.52,13587,15.63,73570.0,10.75,2.77,4.19,0,*48
1505041336.75,13588,15.63,73564.5,10.79,1.85,3.29,0,*41
1505041337.97,13589,15.63,73562.3,10.81,0.21,1.63,0,*74
1505041339.19,13590,15.63,73568.8,10.83,-0.37,1.17,0,*57
1505041340.44,13591,15.63,73568.3,10.83,-0.23,1.37,0,*51
1505041341.64,13592,15.63,73564.8,10.83,-0.77,1.05,0,*52
1505041342.87,13593,15.63,73566.8,10.89,-0.97,0.91,0,*6B
1505041344.1,13594,15.63,73574.3,10.91,-1.21,0.71,0,*57
1505041345.31,13595,15.63,73570.3,10.91,-2.43,-0.69,0,*75
1505041346.55,13596,15.63,73572.8,10.91,-3.31,-1.83,0,*47
1505041347.73,13597,15.63,73584.3,10.85,-2.91,-1.63,0,*46
1505041348.94,13598,15.63,73572.3,10.85,-2.39,-1.39,0,*44
1505041350.17,13599,15.63,73582.0,10.83,-4.77,-4.05,0,*45
1505041351.37,13600,15.63,73576.3,10.81,-4.09,-3.67,0,*4E
1505041352.62,13601,15.63,73580.8,10.77,-5.69,-5.27,0,*43
1505041353.86,13602,15.63,73582.5,10.71,-5.11,-4.57,0,*4F
1505041355.08,13603,15.63,73570.5,10.69,-5.27,-4.61,0,*47
1505041356.3,13604,15.63,73578.5,10.63,-5.19,-4.41,0,*45
1505041357.54,13605,15.63,73582.8,10.61,-3.39,-2.71,0,*47
1505041358.78,13606,15.63,73576.0,10.61,-3.23,-2.71,0,*4F
1505041360.03,13607,15.63,73584.0,10.57,-2.47,-1.67,0,*4C
1505041361.24,13608,15.63,73592.5,10.55,-1.09,-0.45,0,*79
1505041362.46,13609,15.63,73584.3,10.57,-0.19,0.41,0,*63
1505041363.69,13610,15.63,73578.5,10.55,-0.23,0.13,0,*67
1505041364.91,13611,15.63,73580.8,10.55,0.55,0.63,0,*4D
1505041366.11,13612,15.63,73580.5,10.53,-0.37,-0.65,0,*4A
1505041367.32,13613,15.63,73570.5,10.51,-0.27,-0.65,0,*48
1505041368.55,13614,15.63,73568.0,10.49,-0.27,-0.81,0,*4C
1505041369.77,13615,15.63,73568.8,10.49,0.13,-0.53,0,*68
1505041370.98,13616,15.63,73560.0,10.47,-0.19,-0.85,0,*49
1505041372.2,13617,15.63,73560.0,10.45,0.43,-0.23,0,*64
1505041373.42,13618,15.63,73564.5,10.41,0.13,-0.57,0,*69
1505041374.63,13619,15.63,73554.0,10.41,-0.73,-1.63,0,*75
1505041375.85,13620,15.63,73552.0,10.39,-0.65,-1.87,0,*7D
1505041377.06,13621,15.63,73564.8,10.35,-0.41,-1.33,0,*79
1505041378.34,13622,15.63,73558.8,10.31,-1.01,-1.99,0,*4B
1505041379.58,13623,15.63,73572.5,10.29,-1.47,-2.47,0,*41
1505041380.83,13624,15.63,73570.5,10.27,-1.55,-2.51,0,*4C
1505041382.05,13625,15.63,73560.3,10.23,-3.07,-4.25,0,*49
1505041383.27,13626,15.63,73558.0,10.21,-3.47,-4.37,0,*4F
1505041384.52,13627,15.63,73560.5,10.15,-1.09,-1.63,0,*45
1505041385.76,13628,15.63,73554.3,10.11,0.37,0.13,0,*44
1505041386.96,13629,15.63,73554.8,10.09,0.97,0.41,0,*41
1505041388.17,13630,15.63,73552.5,10.09,2.13,1.83,0,*48
1505041389.42,13631,15.63,73554.5,10.07,1.71,1.59,0,*47
1505041390.61,13632,15.63,73552.3,10.09,1.75,1.83,0,*49
1505041391.83,13633,15.63,73568.0,10.09,2.25,2.55,0,*46
1505041393.06,13634,15.63,73568.0,10.07,2.73,2.91,0,*44
1505041394.27,13635,15.63,73558.0,10.09,2.91,3.19,0,*46
1505041395.51,13636,15.63,73558.5,10.09,3.41,3.41,0,*44
1505041396.74,13637,15.63,73566.8,10.13,2.89,2.81,0,*46
1505041397.98,13638,15.63,73558.8,10.13,1.55,1.25,0,*46
1505041399.2,13639,15.63,73564.8,10.15,1.89,1.41,0,*42
1505041400.42,13640,15.63,73552.0,10.15,0.17,-0.57,0,*61
1505041401.63,13641,15.63,73542.3,10.11,-0.29,-0.73,0,*42
1505041402.85,13642,15.63,73528.3,10.09,0.25,0.17,0,*46
1505041404.07,13643,15.63,73574.5,10.09,0.25,0.51,0,*45
1505041405.29,13644,15.63,73568.5,10.11,-0.69,-0.11,0,*47
1505041406.52,13645,15.63,73570.0,10.11,-0.33,0.91,0,*6C
1505041407.74,13646,15.63,73570.0,10.13,-3.27,-1.09,0,*46
1505041408.94,13647,15.63,73562.3,10.13,-6.69,-3.27,0,*46
1505041410.16,13648,15.63,73572.5,10.13,-8.97,-4.81,0,*4D
1505041411.37,13649,15.63,73568.8,10.13,-9.49,-4.99,0,*47
1505041412.62,13650,15.63,73570.3,10.15,-8.97,-4.69,0,*44
1505041413.87,13651,15.63,73572.0,10.15,-9.23,-5.07,0,*42
1505041415.07,13652,15.63,73572.5,10.13,-8.93,-4.29,0,*40
1505041416.29,13653,15.69,73572.8,10.13,-8.03,-2.83,0,*4E
1505041417.48,13654,15.63,73570.0,10.13,-8.29,-2.15,0,*4E
1505041418.7,13655,15.63,73566.0,10.13,-7.65,-0.77,0,*7E
1505041419.93,13656,15.63,73568.5,10.13,-6.27,0.83,0,*5C
1505041421.14,13657,15.63,73564.5,10.17,-5.31,1.83,0,*6C
1505041422.38,13658,15.63,73570.8,10.21,-5.27,1.93,0,*60
1505041423.61,13659,15.63,73570.8,10.23,-4.49,2.81,0,*6A
1505041424.85,13660,15.63,73572.0,10.27,-3.15,3.71,0,*64
1505041426.07,13661,15.63,73568.3,10.29,-2.99,3.71,0,*6E
1505041427.27,13662,15.63,73572.5,10.33,-4.61,2.01,0,*61
1505041428.53,13663,15.63,73570.8,10.35,-5.69,0.51,0,*58
1505041429.71,13664,15.63,73562.5,10.33,-6.01,-0.03,0,*4E
1505041430.97,13665,15.63,73562.0,10.35,-5.03,0.75,0,*54
1505041432.23,13666,15.63,73560.5,10.37,-5.61,0.13,0,*51
1505041433.46,13667,15.63,73562.5,10.35,-6.13,-0.23,0,*7A
1505041434.7,13668,15.63,73560.3,10.35,-6.19,-0.65,0,*7D
1505041435.92,13669,15.63,73562.8,10.33,-5.65,-0.41,0,*74
1505041437.15,13670,15.63,73560.3,10.35,-5.11,-0.45,0,*7D
1505041438.33,13671,15.63,73564.0,10.33,-4.37,-0.33,0,*7E
1505041439.51,13672,15.69,73578.5,10.33,-3.23,0.09,0,*6B
1505041440.72,13673,15.63,73576.3,10.33,-2.95,0.17,0,*59
1505041441.95,13674,15.69,73576.0,10.35,-2.07,1.01,0,*65
1505041443.21,13675,15.69,73572.8,10.35,-2.55,0.51,0,*57
1505041444.46,13676,15.69,73572.8,10.37,-2.67,0.67,0,*52
1505041445.69,13677,15.69,73570.3,10.45,-2.35,0.91,0,*58
1505041446.91,13678,15.63,73576.8,10.47,-1.67,1.85,0,*65
1505041448.1,13679,15.63,73570.8,10.51,-1.79,1.79,0,*6F
1505041449.33,13680,15.63,73590.5,10.53,-3.15,0.59,0,*50
1505041450.54,13681,15.63,73564.0,10.57,-8.33,-3.87,0,*47
1505041451.74,13682,15.63,73566.0,10.55,-8.41,-4.21,0,*48
1505041452.93,13683,15.63,73554.8,10.55,-8.41,-3.83,0,*46
1505041454.15,13684,15.69,73560.0,10.55,-7.27,-2.35,0,*42
1505041455.34,13685,15.69,73544.5,10.59,-9.19,-3.79,0,*45
1505041456.59,13686,15.69,73560.5,10.59,-8.81,-2.75,0,*4B
1505041457.79,13687,15.63,73576.3,10.63,-9.57,-3.15,0,*4E
1505041459.04,13688,15.69,73576.5,10.67,-11.73,-5.15,0,*7C
1505041460.28,13689,15.69,73578.0,10.67,-11.33,-5.03,0,*7E
1505041461.51,13690,15.63,73570.5,10.71,-10.31,-3.91,0,*7F
1505041462.73,13691,15.63,73570.8,10.75,-10.97,-4.45,0,*78
1505041464.0,13692,15.69,73572.8,10.79,-11.67,-4.73,0,*7C
1505041465.25,13693,15.63,73568.0,10.83,-13.23,-5.69,0,*70
1505041466.46,13694,15.63,73566.0,10.89,-13.93,-6.19,0,*72
1505041467.69,13695,15.63,73576.0,10.89,-14.55,-6.59,0,*7A
1505041468.91,13696,15.69,73582.0,10.93,-15.89,-7.87,0,*70
1505041470.15,13697,15.63,73580.5,10.93,-15.57,-7.77,0,*7D
1505041471.4,13698,15.69,73580.0,10.97,-14.47,-7.39,0,*7C
1505041472.61,13699,15.63,73578.3,10.97,-14.93,-8.33,0,*71
1505041473.84,13700,15.63,73570.5,11.01,-19.31,-13.11,0,*41
1505041475.06,13701,15.63,73592.0,10.99,-19.47,-13.73,0,*45
1505041476.26,13702,15.63,73590.0,10.97,-17.73,-12.89,0,*45
1505041477.54,13703,15.63,73576.3,10.95,-19.23,-14.79,0,*44
1505041478.77,13704,15.63,73574.8,10.95,-18.17,-14.33,0,*4B
1505041480.0,13705,15.63,73556.0,10.91,-16.41,-13.15,0,*40
1505041481.25,13706,15.69,73574.8,10.91,-18.73,-15.89,0,*4F
1505041482.47,13707,15.69,73588.8,10.85,-17.31,-14.83,0,*49
1505041483.71,13708,15.69,73578.3,10.85,-17.41,-15.49,0,*46
1505041484.95,13709,15.63,73576.0,10.83,-15.49,-13.61,0,*47
1505041486.18,13710,15.69,73570.3,10.85,-16.09,-14.37,0,*4A
1505041487.37,13711,15.69,73550.3,10.81,-16.45,-14.69,0,*4C
1505041488.65,13712,15.69,73544.3,10.83,-14.51,-12.53,0,*45
1505041489.88,13713,15.69,73538.8,10.85,-14.61,-12.53,0,*41
1505041491.1,13714,15.63,73542.5,10.89,-15.35,-12.93,0,*46
1505041492.32,13715,15.69,73554.5,10.89,-13.79,-11.19,0,*48
1505041493.55,13716,15.63,73550.8,10.93,-12.25,-9.49,0,*74
1505041494.77,13717,15.69,73562.8,10.97,-13.55,-10.75,0,*40
1505041495.99,13718,15.69,73572.0,10.97,-12.71,-9.97,0,*7C
1505041497.22,13719,15.69,73574.8,11.03,-12.39,-9.75,0,*71
1505041498.45,13720,15.69,73578.8,11.05,-11.15,-8.51,0,*77
1505041499.71,13721,15.69,73576.5,11.11,-12.11,-9.67,0,*70
1505041500.99,13722,15.63,73574.0,11.15,-15.21,-12.83,0,*43
1505041502.2,13723,15.69,73574.8,11.13,-15.49,-13.11,0,*40
1505041503.46,13724,15.69,73566.8,11.13,-14.97,-12.53,0,*42
1505041504.72,13725,15.69,73566.0,11.15,-14.37,-12.11,0,*49
1505041506.02,13726,15.69,73560.0,11.15,-14.51,-12.35,0,*4C
1505041507.25,13727,15.63,73560.3,11.13,-13.29,-11.19,0,*4E
1505041508.47,13728,15.63,73562.0,11.13,-12.03,-10.19,0,*49
1505041509.73,13729,15.69,73564.0,11.15,-11.51,-9.71,0,*7C
1505041510.95,13730,15.69,73566.3,11.15,-10.31,-8.67,0,*75
1505041512.16,13731,15.69,73566.3,11.13,-10.35,-8.93,0,*7D
1505041513.39,13732,15.69,73564.8,11.13,-9.37,-8.21,0,*4D
1505041514.61,13733,15.63,73564.0,11.13,-8.71,-8.03,0,*4F
1505041515.83,13734,15.69,73556.8,11.13,-8.21,-7.99,0,*41
1505041517.03,13735,15.69,73554.0,11.13,-7.87,-8.17,0,*4A
1505041518.31,13736,15.69,73554.0,11.11,-6.97,-7.73,0,*46
1505041519.55,13737,15.63,73552.0,11.07,-5.55,-6.59,0,*44
1505041520.8,13738,15.69,73536.5,11.07,-4.89,-6.31,0,*45
1505041522.09,13739,15.69,73520.5,11.07,-3.51,-5.07,0,*40
1505041523.31,13740,15.69,73516.3,11.05,-2.35,-4.01,0,*48
1505041524.54,13741,15.69,73516.8,11.05,-0.77,-2.75,0,*78
1505041525.79,13742,15.69,73514.0,11.03,-0.19,-2.51,0,*73
1505041527.03,13743,15.69,73526.5,11.03,0.37,-2.43,0,*50
1505041528.25,13744,15.69,73536.8,11.03,-0.15,-3.27,0,*79
1505041529.51,13745,15.69,73542.5,11.03,0.75,-2.55,0,*57
1505041530.77,13746,15.63,73530.3,11.03,-1.17,-4.69,0,*45
1505041531.99,13747,15.63,73532.5,10.99,-1.21,-4.61,0,*4B
1505041533.18,13748,15.69,73540.8,10.99,0.43,-2.27,0,*58
1505041534.4,13749,15.69,73538.8,11.05,0.87,-1.29,0,*58
1505041535.66,13750,15.69,73546.5,11.07,0.51,-1.13,0,*50
1505041536.89,13751,15.63,73538.8,11.15,0.05,-1.05,0,*64
1505041538.12,13752,15.69,73548.8,11.19,-1.25,-1.75,0,*42
1505041539.38,13753,15.69,73550.3,11.23,-3.63,-3.27,0,*4F
1505041540.63,13754,15.69,73570.3,11.27,-3.71,-2.87,0,*44
1505041541.88,13755,15.69,73566.5,11.31,-5.77,-4.09,0,*42
1505041543.1,13756,15.69,73550.3,11.37,-6.81,-4.45,0,*45
1505041544.38,13757,15.69,73570.0,11.41,-8.07,-5.03,0,*46
1505041545.64,13758,15.69,73572.3,11.45,-9.19,-5.23,0,*41
1505041546.89,13759,15.69,73578.5,11.45,-9.67,-4.81,0,*40
1505041548.16,13760,15.63,73572.8,11.49,-10.79,-5.03,0,*7A
1505041549.4,13761,15.69,73576.8,11.53,-13.19,-6.47,0,*76
1505041550.6,13762,15.69,73556.8,11.51,-13.43,-5.97,0,*76
1505041551.8,13763,15.69,73546.0,11.51,-14.89,-6.89,0,*7A
1505041553.02,13764,15.69,73538.3,11.47,-15.43,-6.85,0,*71
1505041554.25,13765,15.69,73542.0,11.43,-15.95,-7.27,0,*76
1505041555.5,13766,15.69,73540.8,11.37,-14.97,-6.01,0,*70
1505041556.76,13767,15.69,73540.5,11.29,-13.87,-5.03,0,*79
1505041557.96,13768,15.63,73520.3,11.25,-13.07,-4.41,0,*75
1505041559.19,13769,15.69,73530.5,11.21,-11.33,-2.91,0,*7E
1505041560.42,13770,15.69,73546.5,11.17,-11.15,-3.51,0,*7A
1505041561.61,13771,15.69,73550.8,11.13,-9.75,-2.79,0,*4B
1505041562.87,13772,15.69,73548.5,11.07,-8.25,-2.07,0,*40
1505041564.1,13773,15.69,73558.5,11.07,-6.51,-1.63,0,*4D
1505041565.33,13774,15.69,73552.5,11.03,-5.47,-1.75,0,*4D
1505041566.54,13775,15.69,73540.8,10.99,-6.05,-2.95,0,*46
1505041567.76,13776,15.69,73536.5,10.93,-5.11,-2.95,0,*49
1505041568.99,13777,15.69,73530.0,10.91,-2.07,-0.65,0,*77
1505041570.21,13778,15.69,73530.0,10.91,-0.45,0.33,0,*62
1505041571.42,13779,15.69,73524.0,10.89,-1.43,-1.25,0,*46
1505041572.63,13780,15.69,73532.8,10.85,-0.73,-1.01,0,*78
1505041573.87,13781,15.69,73538.5,10.83,-2.11,-3.11,0,*4A
1505041575.07,13782,15.69,73538.8,10.77,-0.57,-1.83,0,*7B
1505041576.24,13783,15.69,73538.3,10.73,0.09,-1.59,0,*6F
1505041577.46,13784,15.69,73536.3,10.73,0.13,-1.87,0,*50
1505041578.67,13785,15.69,73532.0,10.71,-0.53,-2.91,0,*7E
1505041579.87,13786,15.69,73526.5,10.67,-1.17,-3.75,0,*40
1505041581.1,13787,15.69,73522.0,10.61,-0.23,-2.83,0,*79
1505041582.28,13788,15.69,73514.8,10.59,-0.49,-3.27,0,*7E
1505041583.46,13789,15.69,73518.8,10.59,-0.03,-2.79,0,*4B
1505041584.67,13790,15.69,73532.5,10.55,0.33,-2.19,0,*57
1505041585.86,13791,15.69,73542.5,10.55,0.67,-1.59,0,*50
1505041587.07,13792,15.69,73562.3,10.55,1.25,-0.81,0,*50
1505041588.26,13793,15.69,73564.3,10.55,0.97,-0.73,0,*64
1505041589.5,13794,15.63,73562.8,10.53,1.37,-0.11,0,*5A
1505041590.69,13795,15.69,73556.8,10.51,1.05,-0.29,0,*53
1505041591.89,13796,15.69,73564.5,10.51,0.83,-0.29,0,*6F
1505041593.12,13797,15.69,73566.0,10.49,0.71,-0.41,0,*64
1505041594.35,13798,15.69,73558.3,10.47,1.47,0.63,0,*7C
1505041595.57,13799,15.69,73516.0,10.41,0.87,0.05,0,*76
1505041596.77,13800,15.69,73502.8,10.39,1.71,0.97,0,*75
1505041598.0,13801,15.69,73494.8,10.37,2.89,1.83,0,*4A
1505041599.23,13802,15.69,73486.0,10.37,1.67,0.09,0,*49
1505041600.48,13803,15.69,73468.0,10.37,2.05,0.25,0,*71
1505041601.7,13804,15.69,73492.5,10.33,2.73,0.63,0,*71
1505041602.87,13805,15.63,73494.5,10.33,2.35,-0.03,0,*69
1505041604.08,13806,15.69,73496.0,10.33,2.25,-0.41,0,*5D
1505041605.27,13807,15.69,73506.0,10.33,1.75,-1.21,0,*6D
1505041606.55,13808,15.69,73512.0,10.31,1.13,-2.07,0,*67
1505041607.79,13809,15.63,73514.0,10.29,0.83,-1.99,0,*53
1505041609.01,13810,15.69,73512.3,10.27,0.67,-1.67,0,*5E
1505041610.19,13811,15.69,73534.3,10.25,-0.07,-2.19,0,*4C
1505041611.39,13812,15.69,73540.8,10.21,0.59,-1.33,0,*56
1505041612.63,13813,15.69,73532.8,10.21,1.09,-0.93,0,*58
1505041613.84,13814,15.69,73554.3,10.21,1.63,-0.45,0,*58
1505041615.05,13815,15.69,73560.3,10.17,1.43,-0.73,0,*5B
1505041616.3,13816,15.69,73560.0,10.15,2.13,-0.23,0,*59
1505041617.51,13817,15.69,73564.3,10.15,2.61,-0.07,0,*6B
1505041618.73,13818,15.69,73568.3,10.17,3.33,0.37,0,*7E
1505041619.94,13819,15.69,73568.0,10.15,3.29,-0.07,0,*68
1505041621.16,13820,15.69,73560.5,10.15,3.29,-0.33,0,*55
1505041622.34,13821,15.69,73566.0,10.17,3.25,-0.49,0,*57
1505041623.57,13822,15.69,73570.0,10.17,3.49,-0.27,0,*56
1505041624.83,13823,15.69,73568.5,10.15,1.89,-1.95,0,*63
1505041626.04,13824,15.69,73574.3,10.17,2.25,-1.29,0,*64
1505041627.23,13825,15.69,73582.8,10.17,3.55,0.33,0,*74
1505041628.49,13826,15.69,73576.0,10.15,2.09,-1.09,0,*68
1505041629.68,13827,15.69,73574.0,10.13,2.27,-0.45,0,*5A
1505041630.95,13828,15.69,73568.0,10.11,0.91,-1.47,0,*5B
1505041632.18,13829,15.69,73568.3,10.07,2.61,0.33,0,*7F
1505041633.41,13830,15.69,73556.0,10.05,2.51,0.47,0,*75
1505041634.61,13831,15.69,73546.0,10.03,1.89,-0.03,0,*69
1505041635.82,13832,15.69,73534.3,10.05,2.01,0.09,0,*48
1505041637.05,13833,15.69,73546.0,10.01,1.85,-0.29,0,*5D
1505041638.26,13834,15.69,73536.0,9.99,2.21,-0.19,0,*6D
1505041639.49,13835,15.69,73546.5,10.01,2.09,-0.73,0,*53
1505041640.71,13836,15.69,73570.0,9.99,3.23,0.13,0,*4B
1505041641.91,13837,15.69,73574.5,9.99,3.81,0.33,0,*40
1505041643.1,13838,15.69,73568.5,9.99,4.67,0.97,0,*4E
1505041644.29,13839,15.69,73570.0,10.01,5.15,1.41,0,*48
1505041645.49,13840,15.69,73572.0,10.05,4.49,0.71,0,*78
1505041646.72,13841,15.69,73570.3,10.07,3.49,-0.03,0,*64
1505041647.98,13842,15.69,73570.0,10.07,2.05,-0.97,0,*53
1505041649.24,13843,15.69,73564.0,10.07,2.81,0.71,0,*7B
1505041650.47,13844,15.69,73570.5,10.09,3.37,1.51,0,*4D
1505041651.73,13845,15.69,73566.3,10.11,2.43,0.51,0,*76
1505041652.97,13846,15.69,73570.8,10.11,1.71,-0.29,0,*55
1505041654.17,13847,15.69,73562.3,10.13,1.05,-0.93,0,*54
1505041655.43,13848,15.69,73562.8,10.11,0.25,-2.07,0,*55
1505041656.71,13849,15.69,73564.3,10.11,1.29,-1.05,0,*68
1505041657.94,13850,15.69,73560.5,10.13,0.95,-1.43,0,*56
1505041659.22,13851,15.69,73564.5,10.11,1.29,-1.09,0,*6D
1505041660.42,13852,15.69,73566.8,10.09,1.89,-0.29,0,*5E
1505041661.65,13853,15.69,73562.8,10.07,1.43,-0.61,0,*5B
1505041662.9,13854,15.69,73562.5,10.07,2.73,0.33,0,*76
1505041664.16,13855,15.69,73568.5,10.07,3.37,0.83,0,*7D
1505041665.39,13856,15.69,73572.8,10.09,3.15,0.63,0,*7E
1505041666.62,13857,15.69,73578.8,10.09,2.55,0.47,0,*7C
1505041667.83,13858,15.69,73570.0,10.07,1.79,-0.03,0,*6D
1505041669.09,13859,15.69,73572.8,10.07,2.17,0.51,0,*7D
1505041670.35,13860,15.69,73562.3,10.07,2.81,1.71,0,*4B
1505041671.59,13861,15.69,73560.8,10.09,3.15,2.55,0,*4D
1505041672.79,13862,15.69,73560.5,10.09,3.55,3.37,0,*4F
1505041674.03,13863,15.69,73556.8,10.13,3.45,3.41,0,*45
1505041675.26,13864,15.69,73556.0,10.17,3.11,3.37,0,*46
1505041676.47,13865,15.69,73558.0,10.17,2.65,3.33,0,*41
1505041677.7,13866,15.69,73560.3,10.23,2.69,3.89,0,*48
1505041678.94,13867,15.69,73570.0,10.27,1.97,3.81,0,*47
1505041680.17,13868,15.69,73570.0,10.29,0.71,3.37,0,*72
1505041681.4,13869,15.69,73568.5,10.31,-0.11,3.07,0,*52
1505041682.63,13870,15.69,73574.3,10.35,-0.57,2.73,0,*5E
1505041683.85,13871,15.69,73578.0,10.39,-1.25,2.25,0,*64
1505041685.11,13872,15.69,73572.3,10.41,-1.43,2.01,0,*6E
1505041686.37,13873,15.69,73570.3,10.49,-1.43,2.39,0,*6C
1505041687.64,13874,15.69,73572.3,10.49,-2.11,2.13,0,*67
1505041688.88,13875,15.69,73574.3,10.57,-1.67,3.15,0,*6C
1505041690.1,13876,15.69,73570.0,10.59,-2.95,2.17,0,*6C
1505041691.35,13877,15.69,73554.3,10.61,-4.81,0.25,0,*56
1505041692.56,13878,15.69,73548.3,10.59,-4.33,0.59,0,*50
1505041693.76,13879,15.69,73546.8,10.59,-4.45,1.29,0,*66
1505041695.0,13880,15.69,73548.0,10.59,-5.19,0.91,0,*5A
1505041696.2,13881,15.69,73544.0,10.59,-5.51,0.67,0,*5E
1505041697.46,13882,15.69,73548.8,10.57,-5.65,0.91,0,*5D
1505041698.67,13883,15.69,73544.8,10.55,-4.13,1.97,0,*69
1505041699.91,13884,15.69,73546.3,10.57,-4.33,1.13,0,*62
1505041701.13,13885,15.69,73544.0,10.57,-2.99,1.89,0,*66
1505041702.39,13886,15.69,73546.0,10.57,-2.55,2.21,0,*64
1505041703.59,13887,15.69,73550.8,10.57,-2.79,1.41,0,*6E
1505041704.84,13888,15.69,73548.8,10.57,-2.59,1.51,0,*62
1505041706.11,13889,15.69,73546.8,10.57,-1.83,1.85,0,*6E
1505041707.35,13890,15.69,73548.0,10.61,0.13,3.33,0,*79
1505041708.6,13891,15.69,73542.5,10.61,0.59,3.33,0,*76
1505041709.8,13892,15.69,73542.3,10.63,0.09,2.51,0,*47
1505041710.99,13893,15.69,73540.3,10.67,0.17,2.65,0,*7A
1505041712.21,13894,15.69,73538.5,10.67,-0.23,2.25,0,*53